Weather History for KCMA - December, 2013

Change the Weather History Date:

Tuesday, December 17, 2013

  Actual Average Record
Temperature  
Mean Temperature 68 °F 53 °F  
Max Temperature 77 °F 65 °F 87 °F (1980)
Min Temperature 59 °F 42 °F 34 °F (2006)
Degree Days  
Heating Degree Days 0 12  
Month to date heating degree days 180 189  
Since 1 July heating degree days 404 521  
Cooling Degree Days 3 0  
Month to date cooling degree days 12 0  
Year to date cooling degree days 646 330  
Growing Degree Days 19 (Base 50)    
Moisture  
Dew Point 37 °F    
Average Humidity 44    
Maximum Humidity 69    
Minimum Humidity 18    
Precipitation  
Precipitation 0.00 in 0.06 in 1.29 in (1948)
Month to date precipitation 0.22 0.71  
Year to date precipitation 2.97 13.87  
Since 1 July precipitation 0.82 2.89  
Sea Level Pressure  
Sea Level Pressure 30.07 in    
Wind  
Wind Speed 6 mph (East)    
Max Wind Speed 14 mph    
Max Gust Speed 18 mph    
Visibility 10 miles    
Events      
T = Trace of Precipitation, MM = Missing Value Source: NWS Daily Summary

Daily Weather History Graph

Daily Weather History Graph

Search for Another Location

Airport or City:

Trip Planner

Search our weather history database for the weather conditions in past years. The results will help you decide how hot, cold, wet, or windy it might be!

Date:

Astronomy

Dec. 17, 2013 Rise Set
Actual Time 6:56 AM PST 4:49 PM PST
Civil Twilight 6:28 AM PST 5:16 PM PST
Nautical Twilight 5:57 AM PST 5:48 PM PST
Astronomical Twilight 5:26 AM PST 6:18 PM PST
Moon 5:30 PM PST (12/17) 6:58 AM PST (12/17)
Length of Visible Light 10h 48m
Length of Day
9h 52m
Full, 100% of the Moon is Illuminated
Dec 17
Full
Dec 25
Last Quarter
Jan 1
New
Jan 7
First Quarter
Jan 15
Full

Hourly Weather History & Observations

Time (PST) Temp. Dew Point Humidity Pressure Visibility Wind Dir Wind Speed Gust Speed Precip Events Conditions
12:55 AM 64.0 °F 25.0 °F 23% 30.10 in 10.0 mi ENE 11.5 mph - N/A   Clear
1:55 AM 62.1 °F 25.0 °F 24% 30.10 in 10.0 mi ENE 9.2 mph - N/A   Clear
2:55 AM 62.1 °F 24.1 °F 23% 30.10 in 10.0 mi ENE 8.1 mph - N/A   Clear
3:55 AM 61.0 °F 24.1 °F 24% 30.09 in 10.0 mi ENE 6.9 mph - N/A   Clear
4:55 AM 63.0 °F 23.0 °F 22% 30.08 in 10.0 mi ENE 6.9 mph - N/A   Clear
5:55 AM 63.0 °F 23.0 °F 22% 30.09 in 10.0 mi Calm Calm - N/A   Clear
6:55 AM 66.9 °F 21.9 °F 18% 30.09 in 10.0 mi ENE 12.7 mph - N/A   Clear
7:55 AM 64.9 °F 26.1 °F 23% 30.11 in 10.0 mi West 12.7 mph - N/A   Clear
8:55 AM 66.9 °F 37.0 °F 33% 30.13 in 10.0 mi WNW 3.5 mph - N/A   Clear
9:55 AM 70.0 °F 44.1 °F 39% 30.14 in 10.0 mi SW 4.6 mph - N/A   Clear
10:55 AM 73.0 °F 44.1 °F 35% 30.12 in 10.0 mi SW 4.6 mph - N/A   Clear
11:55 AM 77.0 °F 44.1 °F 31% 30.09 in 10.0 mi SW 4.6 mph - N/A   Clear
12:55 PM 75.9 °F 39.0 °F 26% 30.07 in 10.0 mi SW 9.2 mph - N/A   Clear
1:55 PM 75.9 °F 41.0 °F 29% 30.05 in 10.0 mi WSW 5.8 mph - N/A   Clear
2:55 PM 72.0 °F 39.9 °F 31% 30.05 in 10.0 mi SSW 3.5 mph - N/A   Clear
3:55 PM 71.1 °F 39.9 °F 32% 30.04 in 10.0 mi Calm Calm - N/A   Clear
4:55 PM 68.0 °F 42.1 °F 39% 30.04 in 10.0 mi Calm Calm - N/A   Clear
5:55 PM 66.0 °F 39.0 °F 37% 30.04 in 10.0 mi Calm Calm - N/A   Clear
6:55 PM 63.0 °F 51.1 °F 65% 30.06 in 10.0 mi West 10.4 mph - N/A   Clear
7:55 PM 62.1 °F 51.1 °F 67% 30.05 in 10.0 mi East 5.8 mph - N/A   Clear
8:55 PM 64.0 °F 45.0 °F 50% 30.04 in 10.0 mi ENE 5.8 mph - N/A   Clear
9:55 PM 62.1 °F 50.0 °F 65% 30.05 in 10.0 mi Calm Calm - N/A   Clear
10:55 PM 61.0 °F 50.0 °F 67% 30.04 in 10.0 mi Calm Calm - N/A   Clear
11:55 PM 64.0 °F 41.0 °F 43% 30.00 in 10.0 mi ENE 10.4 mph - N/A   Clear